QPF
0.00 0.00 0.00 0.00 0.00 0.00 0.00 0.00 0.00 0.00 0.00 0.00 0.00 0.01 0.01 0.01 0.01 0.01 0.00 0.00 0.00 0.00 0.00 0.00 0.00 0.00 0.00 0.00 0.00 0.00 0.00 0.00 0.00 0.00 0.00 0.00 0.00 0.00 0.00 0.00 0.00 0.00 0.00
0.00 0.00 0.00 0.00 0.00 0.00 0.00 0.00 0.00 0.00 0.00 0.00 0.00 0.00 0.00 0.00 0.01 0.00 0.01 0.00 0.00 0.00 0.00 0.01 0.00 0.00 0.00 0.00 0.00 0.01 0.01 0.01 0.00 0.00 0.00 0.00 0.00 0.00 0.00 0.00 0.00 0.00 0.00
0.00 0.00 0.00 0.00 0.00 0.00 0.00 0.00 0.00 0.00 0.00 0.00 0.00 0.00 0.00 0.00 0.00 0.00 0.01 0.00 0.00 0.00 0.00 0.01 0.00 0.01 0.00 0.00 0.00 0.00 0.00 0.00 0.00 0.00 0.00 0.00 0.00 0.00 0.00 0.00 0.00 0.00 0.00
0.00 0.00 0.00 0.00 0.00 0.00 0.00 0.00 0.00 0.00 0.00 0.00 0.00 0.00 0.00 0.00 0.00 0.00 0.00 0.01 0.00 0.00 0.00 0.00 0.00 0.00 0.00 0.00 0.00 0.00 0.01 0.00 0.00 0.00 0.00 0.00 0.00 0.00 0.00 0.00 0.00 0.00 0.00
0.00 0.00 0.00 0.00 0.00 0.00 0.00 0.00 0.00 0.00 0.00 0.00 0.00 0.00 0.00 0.00 0.00 0.00 0.00 0.00 0.00 0.00 0.00 0.00 0.00 0.00 0.00 0.00 0.01 0.01 0.01 0.00 0.00 0.00 0.00 0.00 0.00 0.00 0.00 0.00 0.00 0.00 0.00
0.00 0.00 0.00 0.00 0.00 0.00 0.00 0.00 0.00 0.00 0.00 0.00 0.00 0.00 0.00 0.00 0.01 0.02 0.01 0.00 0.00 0.00 0.00 0.00 0.00 0.00 0.01 0.02 0.04 0.05 0.05 0.02 0.00 0.00 0.00 0.00 0.00 0.00 0.00 0.00 0.00 0.00 0.00
0.00 0.00 0.00 0.00 0.00 0.00 0.00 0.00 0.00 0.00 0.00 0.00 0.00 0.00 0.00 0.00 0.00 0.00 0.02 0.00 0.00 0.00 0.00 0.00 0.00 0.00 0.01 0.00 0.00 0.01 0.00 0.02 0.03 0.02 0.00 0.00 0.00 0.00 0.00 0.00 0.00 0.00 0.00
0.00 0.00 0.00 0.00 0.00 0.00 0.00 0.00 0.00 0.00 0.00 0.00 0.00 0.00 0.00 0.01 0.01 0.01 0.02 0.01 0.00 0.00 0.00 0.01 0.01 0.00 0.00 0.00 0.00 0.00 0.00 0.00 0.00 0.00 0.00 0.00 0.00 0.00 0.00 0.00 0.00 0.00 0.00
0.00 0.00 0.00 0.00 0.00 0.00 0.00 0.00 0.00 0.00 0.00 0.00 0.00 0.01 0.01 0.01 0.02 0.01 0.00 0.00 0.00 0.00 0.00 0.00 0.00 0.00 0.01 0.00 0.00 0.00 0.00 0.00 0.01 0.02 0.02 0.02 0.01 0.00 0.00 0.00 0.00 0.00 0.00
0.00 0.00 0.00 0.00 0.00 0.00 0.00 0.00 0.00 0.00 0.00 0.00 0.00 0.00 0.01 0.01 0.02 0.01 0.00 0.00 0.00 0.00 0.00 0.00 0.02 0.02 0.02 0.01 0.00 0.00 0.00 0.00 0.00 0.01 0.01 0.02 0.01 0.01 0.01 0.00 0.00 0.00 0.00
0.00 0.00 0.00 0.00 0.00 0.00 0.00 0.00 0.00 0.00 0.00 0.00 0.00 0.00 0.00 0.00 0.01 0.01 0.01 0.00 0.00 0.00 0.00 0.00 0.02 0.04 0.03 0.02 0.01 0.00 0.00 0.00 0.00 0.00 0.00 0.00 0.00 0.00 0.00 0.00 0.00 0.00 0.00
0.00 0.00 0.00 0.00 0.00 0.00 0.00 0.00 0.00 0.00 0.00 0.00 0.00 0.00 0.00 0.00 0.00 0.00 0.00 0.00 0.00 0.00 0.00 0.00 0.01 0.02 0.02 0.02 0.01 0.02 0.01 0.00 0.00 0.00 0.00 0.00 0.00 0.00 0.00 0.00 0.00 0.00 0.00
0.00 0.00 0.00 0.00 0.00 0.00 0.00 0.00 0.00 0.00 0.00 0.00 0.00 0.00 0.00 0.00 0.00 0.00 0.00 0.00 0.00 0.00 0.00 0.00 0.00 0.00 0.00 0.00 0.00 0.00 0.00 0.00 0.00 0.00 0.00 0.00 0.00 0.00 0.00 0.00 0.00 0.00 0.00
0.00 0.00 0.00 0.00 0.00 0.00 0.00 0.00 0.00 0.00 0.00 0.00 0.00 0.00 0.00 0.00 0.00 0.00 0.00 0.00 0.00 0.00 0.00 0.00 0.00 0.00 0.00 0.00 0.00 0.00 0.00 0.00 0.00 0.00 0.00 0.00 0.00 0.00 0.00 0.00 0.00 0.00 0.00
0.00 0.00 0.00 0.00 0.00 0.00 0.00 0.00 0.00 0.00 0.00 0.00 0.00 0.00 0.00 0.00 0.00 0.00 0.00 0.00 0.00 0.00 0.00 0.00 0.00 0.00 0.00 0.00 0.00 0.00 0.00 0.00 0.00 0.00 0.00 0.00 0.00 0.00 0.00 0.00 0.00 0.00 0.00
0.00 0.00 0.00 0.00 0.00 0.00 0.00 0.00 0.00 0.00 0.00 0.00 0.00 0.00 0.00 0.00 0.00 0.00 0.00 0.00 0.00 0.00 0.00 0.00 0.00 0.00 0.00 0.00 0.00 0.00 0.00 0.00 0.00 0.00 0.00 0.00 0.00 0.00 0.00 0.00 0.00 0.00 0.00
0.00 0.00 0.00 0.00 0.00 0.00 0.00 0.00 0.00 0.00 0.00 0.00 0.00 0.00 0.00 0.00 0.00 0.00 0.00 0.00 0.00 0.00 0.00 0.00 0.00 0.00 0.00 0.00 0.00 0.00 0.00 0.00 0.00 0.00 0.00 0.00 0.00 0.00 0.00 0.00 0.00 0.00 0.00
0.00 0.00 0.00 0.00 0.00 0.00 0.00 0.00 0.00 0.00 0.00 0.00 0.00 0.00 0.00 0.00 0.00 0.00 0.00 0.00 0.00 0.00 0.00 0.00 0.00 0.00 0.00 0.00 0.00 0.00 0.00 0.00 0.00 0.00 0.00 0.00 0.00 0.00 0.00 0.00 0.00 0.00 0.00
0.00 0.00 0.00 0.00 0.00 0.00 0.00 0.00 0.00 0.00 0.00 0.00 0.00 0.00 0.00 0.00 0.00 0.00 0.00 0.00 0.00 0.00 0.00 0.00 0.00 0.00 0.00 0.00 0.00 0.00 0.00 0.00 0.00 0.00 0.00 0.00 0.00 0.00 0.00 0.00 0.00 0.00 0.00
0.00 0.00 0.00 0.00 0.00 0.00 0.00 0.00 0.00 0.00 0.00 0.00 0.00 0.00 0.00 0.00 0.00 0.00 0.00 0.00 0.00 0.00 0.00 0.00 0.00 0.00 0.00 0.00 0.00 0.00 0.00 0.00 0.00 0.00 0.00 0.00 0.00 0.00 0.00 0.00 0.00 0.00 0.00
0.00 0.00 0.00 0.00 0.00 0.00 0.00 0.00 0.00 0.00 0.00 0.00 0.00 0.00 0.00 0.00 0.00 0.00 0.00 0.00 0.00 0.00 0.00 0.00 0.00 0.00 0.00 0.00 0.00 0.00 0.00 0.00 0.00 0.00 0.00 0.00 0.00 0.00 0.00 0.00 0.00 0.00 0.00
0.00 0.00 0.00 0.00 0.00 0.00 0.00 0.00 0.00 0.00 0.00 0.00 0.00 0.00 0.00 0.00 0.00 0.00 0.00 0.00 0.00 0.00 0.00 0.00 0.00 0.00 0.00 0.00 0.00 0.00 0.00 0.00 0.00 0.00 0.00 0.00 0.00 0.00 0.00 0.00 0.00 0.00 0.00
0.00 0.00 0.00 0.00 0.00 0.00 0.00 0.00 0.00 0.00 0.00 0.00 0.00 0.00 0.00 0.00 0.00 0.00 0.00 0.00 0.00 0.00 0.00 0.00 0.00 0.00 0.00 0.00 0.00 0.00 0.00 0.00 0.00 0.00 0.00 0.00 0.00 0.00 0.00 0.00 0.00 0.00 0.00
0.00 0.00 0.00 0.00 0.00 0.00 0.00 0.00 0.00 0.00 0.00 0.00 0.00 0.00 0.00 0.00 0.00 0.00 0.00 0.00 0.00 0.00 0.00 0.00 0.00 0.00 0.00 0.00 0.00 0.00 0.00 0.00 0.00 0.00 0.00 0.00 0.00 0.00 0.00 0.00 0.00 0.00 0.00
0.00 0.00 0.00 0.00 0.00 0.00 0.00 0.00 0.00 0.00 0.00 0.00 0.00 0.00 0.00 0.00 0.00 0.00 0.00 0.00 0.00 0.00 0.00 0.00 0.00 0.00 0.00 0.00 0.00 0.00 0.00 0.00 0.00 0.00 0.00 0.00 0.00 0.00 0.00 0.00 0.00 0.00 0.00
0.00 0.00 0.00 0.00 0.00 0.00 0.00 0.00 0.00 0.00 0.00 0.00 0.00 0.00 0.00 0.00 0.00 0.00 0.00 0.00 0.00 0.00 0.00 0.00 0.00 0.00 0.00 0.00 0.00 0.00 0.00 0.00 0.00 0.00 0.00 0.00 0.00 0.00 0.00 0.00 0.00 0.00 0.00
MSLP
1016.85 1015.65 1014.49 1013.29 1012.19 1011.10 1009.98 1008.75 1007.53 1006.14 1005.26 1005.33 1005.56 1005.71 1005.95 1006.15 1006.31 1006.44 1006.42 1006.58 1006.88 1007.13 1007.25 1007.33 1007.84 1008.12 1008.35 1008.39 1008.68 1008.76 1008.83 1009.12 1009.46 1009.43 1009.47 1009.17 1009.29 1009.21 1008.88 1008.60 1008.22 1007.73 1007.10
1017.25 1015.93 1014.71 1013.58 1012.40 1011.14 1009.86 1008.60 1007.35 1006.35 1005.86 1005.71 1005.60 1005.71 1005.79 1005.94 1005.95 1006.08 1006.18 1006.16 1006.30 1006.46 1006.69 1006.98 1007.39 1007.47 1007.73 1007.91 1008.30 1008.33 1008.71 1008.59 1008.73 1009.17 1009.03 1009.03 1009.26 1008.97 1008.52 1008.37 1007.98 1007.49 1007.05
1017.40 1016.23 1015.05 1013.86 1012.60 1011.37 1010.17 1008.85 1007.29 1006.33 1006.05 1005.96 1005.88 1005.88 1005.98 1005.92 1005.85 1005.79 1005.80 1005.74 1005.88 1006.06 1006.25 1006.51 1006.72 1007.07 1007.25 1007.43 1007.76 1008.21 1008.28 1008.12 1008.50 1008.48 1008.70 1008.97 1009.12 1009.02 1008.62 1008.36 1008.07 1007.77 1006.74
1017.71 1016.52 1015.35 1014.18 1013.10 1012.08 1011.06 1009.87 1008.57 1007.27 1006.60 1006.27 1006.09 1005.94 1005.87 1005.79 1005.46 1005.40 1005.48 1005.59 1005.72 1005.74 1005.86 1006.01 1006.23 1006.42 1006.60 1006.81 1007.00 1007.18 1007.23 1007.60 1007.99 1008.11 1008.36 1008.66 1008.92 1009.01 1009.02 1008.88 1008.48 1008.18 1007.43
1018.16 1017.04 1015.92 1014.78 1013.82 1012.93 1011.85 1010.88 1009.77 1008.64 1007.59 1006.80 1006.33 1006.10 1005.91 1005.63 1005.21 1005.16 1005.26 1005.37 1005.41 1005.52 1005.60 1005.87 1005.95 1005.89 1005.84 1006.00 1006.19 1006.41 1006.60 1006.97 1007.61 1007.52 1007.89 1008.27 1008.51 1008.86 1008.93 1009.02 1009.14 1008.75 1008.32
1018.79 1017.85 1016.73 1015.45 1014.42 1013.69 1012.79 1011.79 1010.78 1009.77 1008.73 1007.59 1006.80 1006.34 1005.91 1005.31 1004.60 1004.27 1004.50 1004.80 1004.97 1005.12 1005.23 1005.39 1005.32 1005.24 1005.14 1005.06 1005.16 1005.35 1005.65 1006.29 1006.47 1006.68 1006.93 1007.50 1007.97 1008.42 1008.54 1008.95 1008.97 1008.85 1008.72
1019.46 1018.60 1017.49 1016.34 1015.39 1014.47 1013.82 1012.78 1011.87 1010.93 1009.91 1008.79 1008.04 1007.29 1006.16 1004.80 1004.09 1003.81 1003.53 1004.00 1004.40 1004.71 1004.98 1005.12 1005.04 1004.77 1004.65 1004.83 1004.97 1005.50 1005.87 1005.71 1005.53 1005.32 1005.98 1006.56 1007.23 1007.69 1008.21 1008.68 1009.02 1008.94 1009.47
1019.93 1019.10 1018.23 1017.18 1016.32 1015.48 1014.44 1013.74 1013.00 1012.35 1011.44 1010.33 1009.19 1008.26 1007.32 1006.43 1005.31 1004.22 1003.49 1003.26 1004.11 1004.59 1004.83 1004.88 1004.85 1004.71 1004.65 1005.32 1005.70 1005.98 1006.21 1006.29 1006.08 1005.76 1005.51 1006.24 1006.75 1007.19 1008.21 1008.57 1009.08 1009.07 1009.53
1020.47 1019.59 1019.00 1018.12 1017.26 1016.37 1015.48 1014.71 1013.98 1013.14 1012.37 1011.75 1010.90 1009.61 1008.68 1007.75 1006.93 1006.18 1005.64 1005.83 1005.76 1005.72 1005.78 1005.81 1005.81 1005.77 1005.84 1006.06 1006.34 1006.80 1006.88 1006.69 1006.52 1006.39 1006.40 1006.72 1007.25 1007.87 1008.39 1008.79 1009.26 1009.28 1009.86
1021.26 1020.43 1019.82 1018.95 1018.15 1017.45 1016.74 1015.97 1015.25 1014.41 1013.66 1012.75 1012.16 1011.35 1010.42 1009.45 1008.71 1008.14 1007.73 1007.45 1007.24 1007.32 1007.33 1007.21 1007.21 1007.26 1007.34 1007.50 1007.59 1007.73 1007.76 1008.15 1007.89 1007.85 1008.09 1007.89 1008.39 1008.66 1009.13 1009.32 1009.52 1009.63 1009.99
1021.96 1021.13 1020.47 1019.86 1019.06 1018.45 1017.73 1016.95 1016.28 1015.55 1014.80 1013.96 1013.18 1012.56 1012.06 1011.04 1010.26 1009.74 1009.36 1008.95 1008.93 1008.70 1008.58 1008.67 1008.67 1008.56 1008.61 1008.77 1008.86 1008.96 1009.08 1009.28 1009.22 1009.32 1009.43 1009.51 1009.62 1009.80 1010.23 1010.37 1010.44 1010.49 1010.63
1022.50 1021.76 1021.12 1020.75 1019.98 1019.31 1018.61 1017.88 1017.19 1016.53 1015.86 1015.21 1014.59 1014.00 1013.43 1012.81 1011.80 1011.10 1010.56 1010.32 1010.36 1010.17 1010.24 1010.09 1009.84 1009.70 1009.78 1009.96 1010.09 1010.11 1010.20 1010.30 1010.35 1010.41 1010.46 1010.65 1010.85 1011.08 1011.35 1011.33 1011.25 1011.18 1011.05
1023.04 1022.42 1021.76 1021.24 1020.85 1020.08 1019.45 1018.70 1018.01 1017.39 1016.79 1016.23 1015.61 1015.15 1014.75 1014.26 1013.78 1013.01 1012.34 1012.06 1011.75 1011.53 1011.37 1011.21 1011.08 1010.97 1010.87 1010.78 1010.90 1011.05 1011.16 1011.15 1011.33 1011.35 1011.51 1011.70 1011.80 1011.93 1011.94 1011.91 1011.74 1011.53 1011.48
1023.63 1023.03 1022.36 1021.83 1021.44 1020.99 1020.28 1019.55 1018.80 1018.15 1017.65 1017.20 1016.55 1016.11 1015.58 1015.11 1014.77 1014.44 1014.08 1013.68 1013.39 1013.24 1013.17 1012.93 1012.71 1012.61 1012.48 1012.49 1012.53 1012.38 1012.29 1012.34 1012.40 1012.59 1012.76 1012.79 1012.69 1012.62 1012.68 1012.57 1012.52 1012.48 1012.47
1024.19 1023.66 1023.04 1022.49 1022.08 1021.69 1021.11 1020.52 1019.94 1019.25 1018.60 1018.08 1017.79 1017.20 1016.65 1016.07 1015.72 1015.43 1015.07 1014.87 1014.77 1014.65 1014.44 1014.21 1014.09 1014.05 1014.02 1013.99 1013.90 1013.73 1013.69 1013.60 1013.59 1013.65 1013.67 1013.65 1013.60 1013.52 1013.55 1013.48 1013.54 1013.50 1013.51
1024.78 1024.19 1023.73 1023.19 1022.74 1022.30 1021.99 1021.59 1021.02 1020.43 1019.75 1019.07 1018.73 1018.41 1017.92 1017.49 1017.11 1016.68 1016.33 1016.08 1015.89 1015.73 1015.48 1015.55 1015.63 1015.66 1015.66 1015.54 1015.39 1015.19 1015.13 1014.83 1014.75 1014.49 1014.54 1014.56 1014.56 1014.55 1014.59 1014.53 1014.47 1014.50 1014.65
1025.43 1024.83 1024.33 1023.81 1023.46 1023.13 1022.83 1022.56 1022.24 1021.67 1020.97 1020.23 1019.93 1019.56 1019.18 1018.59 1018.33 1017.97 1017.54 1017.23 1017.03 1016.88 1016.66 1017.01 1017.10 1017.07 1016.91 1016.71 1016.50 1016.34 1016.33 1016.13 1015.78 1015.68 1015.66 1015.62 1015.51 1015.40 1015.37 1015.33 1015.35 1015.26 1015.31
1025.86 1025.30 1024.98 1024.60 1024.24 1023.88 1023.62 1023.34 1023.01 1022.56 1022.01 1021.69 1021.28 1020.80 1020.42 1019.95 1019.50 1019.15 1018.89 1018.66 1018.39 1018.09 1018.11 1018.29 1018.22 1018.03 1017.90 1017.69 1017.49 1017.35 1017.18 1016.96 1016.81 1016.77 1016.75 1016.67 1016.56 1016.45 1016.35 1016.18 1015.98 1015.84 1015.64
1026.34 1025.88 1025.51 1025.17 1024.81 1024.49 1024.28 1023.99 1023.73 1023.42 1022.98 1022.77 1022.42 1021.99 1021.66 1021.12 1020.60 1020.41 1020.31 1019.94 1019.85 1019.66 1019.54 1019.52 1019.29 1019.08 1018.85 1018.48 1018.13 1017.85 1017.60 1017.44 1017.54 1017.57 1017.62 1017.49 1017.33 1017.23 1017.16 1016.95 1016.69 1016.57 1016.51
1026.84 1026.37 1025.95 1025.74 1025.49 1025.25 1025.03 1024.78 1024.53 1024.33 1024.00 1023.56 1023.40 1023.37 1022.97 1022.02 1021.97 1021.84 1021.50 1021.17 1020.93 1020.83 1020.80 1020.73 1020.57 1020.21 1019.95 1019.50 1019.10 1018.81 1018.45 1018.21 1018.05 1017.96 1017.81 1017.62 1017.49 1017.22 1017.06 1016.91 1016.78 1016.65 1016.47
1027.35 1026.94 1026.51 1026.25 1026.08 1025.97 1025.78 1025.60 1025.36 1025.22 1025.04 1024.73 1024.50 1024.22 1023.80 1023.48 1023.42 1023.12 1022.66 1022.30 1022.06 1021.80 1021.66 1021.60 1021.51 1021.20 1020.79 1020.35 1020.00 1019.64 1019.33 1019.23 1018.87 1018.78 1018.52 1018.25 1018.11 1017.96 1017.72 1017.54 1017.40 1017.19 1016.95
1027.67 1027.40 1027.08 1026.90 1026.67 1026.50 1026.41 1026.20 1026.03 1025.94 1025.88 1025.67 1025.44 1025.10 1024.82 1024.43 1024.29 1024.05 1023.73 1023.37 1023.07 1022.75 1022.46 1022.32 1022.18 1021.96 1021.63 1021.25 1020.78 1020.38 1020.16 1019.88 1019.62 1019.37 1019.16 1018.84 1018.66 1018.43 1018.24 1018.07 1017.89 1017.68 1017.37
1027.93 1027.77 1027.58 1027.38 1027.16 1027.00 1026.98 1026.78 1026.66 1026.56 1026.56 1026.38 1026.13 1025.84 1025.61 1025.44 1025.22 1024.98 1024.67 1024.27 1023.83 1023.51 1023.26 1022.91 1022.67 1022.42 1021.98 1021.59 1021.26 1020.91 1020.64 1020.51 1020.18 1019.73 1019.66 1019.48 1019.16 1018.90 1018.68 1018.51 1018.33 1018.20 1017.93
1028.20 1028.14 1028.06 1027.90 1027.62 1027.59 1027.56 1027.49 1027.19 1026.95 1026.95 1026.92 1026.81 1026.65 1026.47 1026.30 1026.09 1025.84 1025.52 1025.10 1024.63 1024.26 1023.94 1023.64 1023.34 1022.97 1022.47 1021.97 1021.45 1020.97 1020.70 1020.55 1020.42 1020.25 1019.99 1019.93 1019.81 1019.46 1019.04 1018.90 1018.91 1018.75 1018.57
1028.58 1028.51 1028.49 1028.44 1028.26 1028.14 1028.01 1027.94 1027.78 1027.56 1027.39 1027.34 1027.32 1027.22 1027.08 1026.85 1026.63 1026.47 1026.20 1025.85 1025.44 1025.02 1024.66 1024.30 1023.87 1023.44 1022.99 1022.53 1022.05 1021.53 1021.03 1020.69 1020.59 1020.54 1020.44 1020.27 1020.16 1019.98 1019.77 1019.50 1019.37 1019.28 1019.15
1029.10 1028.90 1028.86 1028.75 1028.62 1028.47 1028.35 1028.31 1028.27 1028.09 1027.91 1027.75 1027.70 1027.60 1027.49 1027.35 1027.15 1026.95 1026.73 1026.43 1026.18 1025.85 1025.42 1025.01 1024.54 1024.06 1023.61 1023.12 1022.62 1022.13 1021.71 1021.37 1021.11 1020.87 1020.74 1020.60 1020.53 1020.48 1020.28 1020.13 1019.96 1019.89 1019.89
Thickness
5416 5413 5410 5410 5411 5411 5413 5415 5416 5419 5416 5404 5391 5378 5367 5360 5357 5354 5354 5354 5352 5350 5349 5348 5346 5345 5347 5352 5353 5358 5362 5365 5372 5373 5377 5382 5390 5398 5417 5438 5459 5483 5504
5410 5406 5405 5404 5405 5409 5412 5415 5417 5417 5413 5405 5395 5383 5374 5364 5362 5359 5356 5356 5353 5349 5344 5341 5339 5341 5343 5346 5348 5353 5354 5360 5363 5365 5368 5371 5375 5386 5403 5417 5435 5461 5482
5407 5402 5400 5400 5403 5407 5409 5412 5417 5419 5414 5406 5397 5387 5376 5368 5363 5361 5358 5356 5352 5347 5340 5338 5339 5338 5339 5341 5345 5347 5351 5359 5357 5362 5363 5366 5369 5374 5385 5397 5411 5430 5457
5402 5398 5398 5399 5400 5401 5401 5403 5406 5412 5411 5406 5399 5391 5383 5374 5369 5364 5359 5354 5350 5347 5342 5341 5340 5340 5341 5343 5348 5351 5354 5354 5354 5359 5363 5364 5366 5368 5371 5379 5388 5404 5427
5398 5395 5396 5397 5397 5395 5396 5396 5398 5403 5406 5404 5401 5395 5388 5382 5377 5371 5363 5356 5351 5347 5346 5342 5341 5343 5347 5348 5350 5352 5354 5356 5354 5361 5363 5363 5364 5360 5367 5368 5373 5387 5404
5396 5394 5394 5395 5395 5392 5392 5392 5393 5396 5399 5402 5400 5396 5392 5389 5389 5386 5377 5367 5360 5354 5350 5349 5350 5350 5352 5357 5359 5361 5362 5357 5358 5361 5364 5362 5364 5362 5365 5365 5368 5376 5391
5402 5397 5395 5396 5396 5393 5391 5391 5391 5391 5393 5396 5393 5390 5392 5397 5397 5394 5391 5380 5372 5366 5360 5356 5356 5359 5360 5359 5361 5359 5359 5364 5369 5374 5375 5369 5367 5365 5363 5362 5363 5369 5371
5408 5404 5402 5401 5400 5396 5398 5397 5393 5388 5387 5388 5388 5386 5383 5383 5387 5391 5394 5392 5380 5374 5369 5366 5365 5365 5365 5360 5358 5357 5359 5361 5365 5368 5372 5368 5368 5366 5361 5362 5360 5369 5369
5415 5410 5407 5405 5403 5401 5400 5397 5393 5392 5389 5383 5379 5381 5378 5376 5373 5373 5374 5372 5369 5367 5367 5363 5361 5361 5361 5359 5356 5355 5356 5360 5363 5365 5367 5366 5363 5362 5359 5359 5358 5363 5362
5417 5413 5409 5409 5406 5403 5399 5396 5392 5390 5386 5384 5378 5373 5368 5366 5362 5358 5356 5357 5359 5357 5356 5356 5355 5353 5352 5349 5347 5347 5348 5345 5349 5351 5351 5356 5356 5355 5355 5356 5356 5359 5360
5418 5416 5413 5411 5408 5403 5400 5398 5393 5389 5385 5382 5376 5367 5357 5353 5350 5347 5345 5348 5346 5346 5346 5345 5345 5346 5344 5341 5339 5337 5336 5336 5340 5340 5341 5342 5345 5346 5343 5344 5345 5348 5353
5421 5419 5416 5412 5410 5406 5403 5400 5396 5391 5386 5380 5372 5360 5348 5342 5343 5341 5341 5340 5338 5339 5337 5338 5340 5340 5338 5335 5333 5334 5334 5333 5333 5334 5334 5334 5334 5334 5333 5334 5336 5340 5346
5423 5422 5419 5417 5413 5410 5407 5405 5400 5395 5388 5381 5372 5358 5346 5339 5335 5335 5336 5335 5334 5334 5334 5335 5335 5335 5334 5334 5332 5330 5329 5329 5329 5330 5330 5329 5329 5329 5331 5333 5335 5340 5345
5426 5425 5423 5421 5418 5413 5411 5409 5405 5400 5391 5383 5375 5363 5353 5345 5339 5335 5334 5334 5333 5330 5328 5329 5328 5326 5326 5323 5321 5321 5322 5321 5321 5322 5321 5321 5324 5326 5327 5329 5332 5334 5338
5430 5428 5427 5425 5423 5419 5415 5412 5407 5402 5397 5388 5377 5369 5360 5355 5347 5343 5343 5342 5338 5334 5332 5331 5328 5323 5320 5317 5316 5316 5315 5315 5315 5314 5313 5314 5315 5318 5319 5321 5323 5326 5328
5432 5432 5430 5428 5426 5423 5417 5411 5407 5403 5400 5396 5386 5376 5368 5359 5354 5353 5351 5350 5346 5343 5346 5339 5332 5325 5320 5316 5313 5311 5308 5309 5310 5313 5313 5312 5313 5313 5313 5314 5316 5317 5319
5433 5434 5432 5432 5429 5425 5420 5413 5408 5405 5403 5400 5392 5386 5379 5373 5366 5362 5361 5360 5357 5356 5354 5343 5336 5331 5327 5325 5322 5318 5313 5312 5313 5314 5311 5309 5309 5309 5308 5310 5309 5311 5312
5436 5437 5435 5433 5430 5427 5422 5417 5413 5409 5405 5400 5395 5391 5388 5382 5378 5373 5370 5368 5367 5365 5358 5350 5345 5341 5336 5333 5330 5327 5325 5323 5322 5319 5317 5315 5313 5312 5312 5311 5312 5313 5316
5438 5438 5438 5436 5434 5431 5426 5422 5418 5414 5410 5404 5399 5396 5393 5389 5387 5383 5379 5379 5374 5370 5365 5359 5354 5351 5347 5345 5343 5340 5338 5336 5331 5328 5325 5323 5322 5320 5320 5320 5322 5325 5323
5440 5441 5442 5439 5436 5433 5429 5426 5422 5417 5414 5411 5406 5398 5394 5396 5394 5390 5388 5386 5383 5378 5372 5367 5362 5360 5357 5355 5354 5351 5350 5347 5344 5342 5340 5338 5336 5335 5336 5335 5334 5334 5334
5441 5442 5444 5442 5439 5436 5432 5428 5425 5421 5416 5413 5410 5406 5403 5402 5398 5396 5394 5393 5389 5386 5381 5376 5372 5370 5369 5366 5363 5361 5361 5357 5355 5351 5349 5349 5346 5347 5346 5344 5344 5344 5344
5444 5444 5444 5443 5442 5440 5436 5432 5429 5425 5420 5416 5413 5411 5409 5408 5405 5402 5400 5397 5395 5392 5389 5386 5382 5379 5377 5375 5373 5372 5369 5367 5365 5363 5361 5360 5358 5357 5356 5355 5355 5354 5354
5446 5446 5446 5446 5445 5444 5440 5436 5433 5429 5425 5420 5418 5417 5415 5412 5410 5408 5405 5402 5400 5398 5395 5393 5391 5390 5388 5386 5384 5383 5380 5378 5376 5376 5372 5371 5371 5370 5368 5366 5365 5362 5361
5448 5447 5447 5446 5448 5445 5442 5439 5437 5435 5431 5426 5423 5420 5418 5416 5414 5412 5410 5408 5407 5405 5403 5402 5400 5399 5398 5397 5397 5397 5395 5392 5389 5387 5385 5382 5381 5380 5380 5379 5376 5374 5371
5448 5448 5447 5447 5447 5447 5445 5443 5441 5438 5436 5432 5428 5425 5422 5421 5419 5417 5416 5414 5414 5413 5412 5411 5410 5409 5409 5408 5407 5407 5406 5404 5401 5399 5396 5395 5393 5391 5389 5388 5386 5383 5381
5445 5447 5447 5447 5447 5447 5447 5445 5443 5441 5439 5437 5434 5431 5428 5425 5424 5423 5422 5421 5420 5419 5418 5419 5418 5418 5418 5418 5416 5416 5416 5415 5413 5411 5409 5407 5405 5403 5401 5399 5397 5394 5391